| time (UTC) | temp F | wind direction | speed MPH | gust MPH | rain 1hr in | rain 24hr in | rain mn in | humidity % | barometer mb |
| 20260904184004 | 87 | 220 | 0.0 | 2.0 | 0.00 | 0.00 | 0.00 | 51 | 1013.8 |
| 20260904183005 | 87 | 107 | 0.0 | 5.0 | 0.00 | 0.00 | 0.00 | 53 | 1013.8 |
| 20260904181004 | 87 | 56 | 0.0 | 5.0 | 0.00 | 0.00 | 0.00 | 59 | 1014.2 |
| 20260904180005 | 86 | 211 | 1.0 | 6.0 | 0.00 | 0.00 | 0.00 | 61 | 1014.1 |
| 20260904175004 | 86 | 262 | 1.0 | 5.0 | 0.00 | 0.00 | 0.00 | 65 | 1014.1 |
| 20260904173005 | 86 | 254 | 4.0 | 7.0 | 0.00 | 0.00 | 0.00 | 67 | 1014.4 |
| 20260904172004 | 86 | 45 | 0.0 | 2.0 | 0.00 | 0.00 | 0.00 | 67 | 1014.1 |
| 20260904170005 | 85 | 273 | 4.0 | 6.0 | 0.00 | 0.00 | 0.00 | 67 | 1014.2 |
| 20260904165004 | 85 | 53 | 0.0 | 6.0 | 0.00 | 0.00 | 0.00 | 67 | 1014.3 |
| 20260904164004 | 85 | 253 | 4.0 | 4.0 | 0.00 | 0.00 | 0.00 | 65 | 1014.2 |
| 20260904163005 | 85 | 300 | 0.0 | 2.0 | 0.00 | 0.00 | 0.00 | 66 | 1014.3 |
| 20260904162004 | 85 | 87 | 0.0 | 4.0 | 0.00 | 0.00 | 0.00 | 68 | 1014.4 |
| 20260904161004 | 84 | 263 | 0.0 | 6.0 | 0.00 | 0.00 | 0.00 | 65 | 1014.4 |
| 20260904155004 | 84 | 67 | 0.0 | 6.0 | 0.00 | 0.00 | 0.00 | 68 | 1014.6 |
| 20260904153004 | 83 | 89 | 1.0 | 3.0 | 0.00 | 0.00 | 0.00 | 70 | 1014.9 |
| 20260904152004 | 83 | 270 | 4.0 | 5.0 | 0.00 | 0.00 | 0.00 | 69 | 1014.7 |
| 20260904151004 | 83 | 325 | 1.0 | 7.0 | 0.00 | 0.00 | 0.00 | 69 | 1014.7 |
| 20260904150005 | 82 | 254 | 0.0 | 7.0 | 0.00 | 0.00 | 0.00 | 71 | 1014.6 |
| 20260904144004 | 79 | 274 | 0.0 | 5.0 | 0.00 | 0.00 | 0.00 | 76 | 1014.6 |
| 20260904143004 | 78 | 313 | 1.0 | 2.0 | 0.00 | 0.00 | 0.00 | 77 | 1014.4 |
| 20260904142049 | 78 | 307 | 1.0 | 2.0 | 0.00 | 0.00 | 0.00 | 78 | 1014.4 |
| 20260904140005 | 77 | 312 | 1.0 | 2.0 | 0.00 | 0.00 | 0.00 | 80 | 1014.2 |
| 20260904134004 | 76 | 240 | 1.0 | 5.0 | 0.00 | 0.00 | 0.00 | 82 | 1014.1 |
| 20260904133004 | 75 | 36 | 1.0 | 5.0 | 0.00 | 0.00 | 0.00 | 82 | 1014.1 |
| 20260904131005 | 74 | 189 | 1.0 | 7.0 | 0.00 | 0.00 | 0.00 | 83 | 1014.3 |
| 20260904130005 | 74 | 325 | 0.0 | 5.0 | 0.00 | 0.00 | 0.00 | 84 | 1014.3 |
| 20260904125004 | 73 | 54 | 0.0 | 6.0 | 0.00 | 0.00 | 0.00 | 85 | 1014.3 |
| 20260904124005 | 73 | 215 | 0.0 | 2.0 | 0.00 | 0.00 | 0.00 | 85 | 1014.5 |
| 20260904123004 | 73 | 64 | 0.0 | 5.0 | 0.00 | 0.00 | 0.00 | 85 | 1014.7 |
| 20260904122005 | 73 | 301 | 0.0 | 4.0 | 0.00 | 0.00 | 0.00 | 86 | 1014.5 |
| 20260904120005 | 72 | 279 | 1.0 | 4.0 | 0.00 | 0.00 | 0.00 | 86 | 1014.3 |
| 20260904115005 | 73 | 269 | 0.0 | 2.0 | 0.00 | 0.00 | 0.00 | 86 | 1014.3 |
| 20260904113004 | 73 | 113 | 1.0 | 2.0 | 0.00 | 0.00 | 0.00 | 86 | 1014.0 |
| 20260904112005 | 73 | 110 | 0.0 | 2.0 | 0.00 | 0.00 | 0.00 | 86 | 1014.3 |
| 20260904111005 | 73 | 342 | 0.0 | 5.0 | 0.00 | 0.00 | 0.00 | 86 | 1014.2 |
| 20260904110004 | 73 | 252 | 1.0 | 6.0 | 0.00 | 0.00 | 0.00 | 86 | 1014.0 |
| 20260904104004 | 73 | 249 | 0.0 | 0.0 | 0.00 | 0.00 | 0.00 | 86 | 1013.8 |
| 20260904103004 | 73 | 294 | 0.0 | 0.0 | 0.00 | 0.00 | 0.00 | 86 | 1013.5 |
| 20260904102005 | 73 | 280 | 0.0 | 0.0 | 0.00 | 0.00 | 0.00 | 86 | 1013.4 |
| 20260904101005 | 73 | 215 | 0.0 | 1.0 | 0.00 | 0.00 | 0.00 | 86 | 1013.4 |
| 20260904100005 | 74 | 197 | 0.0 | 0.0 | 0.00 | 0.00 | 0.00 | 86 | 1013.4 |
| 20260904095005 | 74 | 194 | 0.0 | 0.0 | 0.00 | 0.00 | 0.00 | 86 | 1013.4 |
| 20260904091005 | 74 | 194 | 0.0 | 1.0 | 0.00 | 0.00 | 0.00 | 86 | 1013.8 |
| 20260904090005 | 74 | 275 | 0.0 | 0.0 | 0.00 | 0.00 | 0.00 | 87 | 1014.0 |
| 20260904085004 | 74 | 267 | 0.0 | 1.0 | 0.00 | 0.00 | 0.00 | 87 | 1014.0 |
| 20260904084005 | 74 | 188 | 0.0 | 0.0 | 0.00 | 0.00 | 0.00 | 87 | 1013.9 |
| 20260904083005 | 74 | 282 | 0.0 | 5.0 | 0.00 | 0.00 | 0.00 | 87 | 1014.0 |
| 20260904082005 | 74 | 316 | 0.0 | 2.0 | 0.00 | 0.00 | 0.00 | 87 | 1014.0 |
| 20260904081005 | 74 | 194 | 0.0 | 0.0 | 0.00 | 0.00 | 0.00 | 87 | 1013.9 |
| 20260904080004 | 74 | 106 | 0.0 | 1.0 | 0.00 | 0.00 | 0.00 | 87 | 1014.2 |
| 20260904075005 | 74 | 265 | 0.0 | 1.0 | 0.00 | 0.00 | 0.00 | 87 | 1014.2 |
| 20260904074004 | 74 | 334 | 0.0 | 0.0 | 0.00 | 0.00 | 0.00 | 87 | 1014.1 |
| 20260904073005 | 74 | 273 | 0.0 | 5.0 | 0.00 | 0.00 | 0.00 | 87 | 1014.0 |
| 20260904072005 | 75 | 332 | 0.0 | 2.0 | 0.00 | 0.00 | 0.00 | 88 | 1014.0 |
| 20260904071005 | 75 | 272 | 0.0 | 1.0 | 0.00 | 0.00 | 0.00 | 88 | 1013.8 |
| 20260904070004 | 75 | 80 | 0.0 | 1.0 | 0.00 | 0.00 | 0.00 | 88 | 1013.5 |
| 20260904063005 | 76 | 279 | 0.0 | 0.0 | 0.00 | 0.00 | 0.00 | 88 | 1013.1 |
| 20260904062010 | 76 | 280 | 0.0 | 0.0 | 0.00 | 0.00 | 0.00 | 88 | 1013.0 |
| 20260904061005 | 76 | 291 | 0.0 | 0.0 | 0.00 | 0.00 | 0.00 | 88 | 1013.1 |
| 20260904060004 | 76 | 292 | 0.0 | 1.0 | 0.00 | 0.00 | 0.00 | 87 | 1013.1 |
| 20260904055005 | 76 | 292 | 0.0 | 0.0 | 0.00 | 0.00 | 0.00 | 87 | 1013.3 |
| 20260904053004 | 76 | 291 | 0.0 | 0.0 | 0.00 | 0.00 | 0.00 | 87 | 1013.4 |
| 20260904051005 | 76 | 291 | 0.0 | 0.0 | 0.00 | 0.00 | 0.00 | 87 | 1013.4 |
| 20260904050004 | 76 | 291 | 0.0 | 0.0 | 0.00 | 0.00 | 0.00 | 87 | 1013.5 |
| 20260904045004 | 76 | 291 | 0.0 | 1.0 | 0.00 | 0.00 | 0.00 | 87 | 1013.6 |
| 20260904044005 | 76 | 292 | 0.0 | 1.0 | 0.00 | 0.00 | 0.00 | 87 | 1013.5 |
| 20260904043005 | 76 | 292 | 0.0 | 1.0 | 0.00 | 0.00 | 0.00 | 86 | 1013.3 |
| 20260904042004 | 76 | 292 | 0.0 | 4.0 | 0.00 | 0.00 | 0.00 | 86 | 1013.4 |
| 20260904041004 | 76 | 344 | 1.0 | 2.0 | 0.00 | 0.00 | 0.00 | 86 | 1013.5 |
| 20260904040004 | 76 | 257 | 0.0 | 1.0 | 0.00 | 0.00 | 0.58 | 86 | 1013.6 |
| 20260904035004 | 77 | 257 | 0.0 | 2.0 | 0.00 | 0.00 | 0.58 | 86 | 1013.8 |
| 20260904034004 | 77 | 351 | 0.0 | 2.0 | 0.00 | 0.00 | 0.57 | 86 | 1014.3 |
| 20260904033005 | 77 | 46 | 0.0 | 0.0 | 0.00 | 0.00 | 0.56 | 85 | 1014.6 |
| 20260904032005 | 77 | 46 | 0.0 | 0.0 | 0.00 | 0.00 | 0.56 | 85 | 1014.4 |
| 20260904030004 | 77 | 46 | 0.0 | 0.0 | 0.00 | 0.00 | 0.56 | 85 | 1014.8 |
| 20260904025005 | 77 | 46 | 0.0 | 0.0 | 0.00 | 0.00 | 0.56 | 85 | 1014.6 |
| 20260904024005 | 77 | 46 | 0.0 | 0.0 | 0.00 | 0.00 | 0.56 | 85 | 1014.5 |
| 20260904021004 | 77 | 46 | 0.0 | 0.0 | 0.00 | 0.00 | 0.56 | 84 | 1014.4 |
| 20260904020005 | 77 | 46 | 0.0 | 0.0 | 0.00 | 0.00 | 0.56 | 84 | 1014.3 |
| 20260904015005 | 77 | 294 | 0.0 | 0.0 | 0.00 | 0.00 | 0.56 | 84 | 1014.2 |
| 20260904014005 | 77 | 294 | 0.0 | 0.0 | 0.00 | 0.00 | 0.56 | 84 | 1014.5 |
| 20260904012004 | 77 | 294 | 0.0 | 0.0 | 0.00 | 0.00 | 0.56 | 84 | 1014.8 |
| 20260904005004 | 78 | 295 | 0.0 | 0.0 | 0.00 | 0.00 | 0.56 | 83 | 1015.2 |
| 20260904004005 | 78 | 295 | 0.0 | 0.0 | 0.00 | 0.00 | 0.56 | 83 | 1014.9 |
| 20260904003004 | 78 | 295 | 0.0 | 0.0 | 0.00 | 0.00 | 0.56 | 83 | 1015.0 |
| 20260904002005 | 78 | 295 | 0.0 | 0.0 | 0.00 | 0.00 | 0.56 | 83 | 1014.9 |
| 20260904001004 | 79 | 295 | 0.0 | 0.0 | 0.00 | 0.00 | 0.56 | 82 | 1014.8 |
| 20260904000004 | 79 | 295 | 0.0 | 0.0 | 0.00 | 0.00 | 0.56 | 82 | 1014.5 |
| 20260903235005 | 79 | 295 | 0.0 | 0.0 | 0.00 | 0.00 | 0.56 | 81 | 1014.3 |
| 20260903234005 | 80 | 295 | 0.0 | 0.0 | 0.00 | 0.00 | 0.56 | 81 | 1014.4 |
| 20260903232004 | 80 | 295 | 0.0 | 0.0 | 0.00 | 0.00 | 0.56 | 80 | 1014.6 |
| 20260903231004 | 81 | 295 | 0.0 | 0.0 | 0.00 | 0.00 | 0.56 | 80 | 1014.3 |
| 20260903230004 | 81 | 295 | 0.0 | 0.0 | 0.00 | 0.00 | 0.56 | 79 | 1014.3 |
| 20260903225004 | 82 | 21 | 0.0 | 0.0 | 0.00 | 0.00 | 0.56 | 78 | 1014.2 |
| 20260903224004 | 82 | 288 | 0.0 | 0.0 | 0.00 | 0.00 | 0.56 | 78 | 1014.1 |
| 20260903223004 | 82 | 274 | 0.0 | 0.0 | 0.00 | 0.00 | 0.56 | 78 | 1014.0 |
| 20260903222005 | 83 | 275 | 0.0 | 0.0 | 0.00 | 0.00 | 0.56 | 78 | 1014.1 |
| 20260903221004 | 83 | 272 | 0.0 | 2.0 | 0.00 | 0.00 | 0.56 | 77 | 1014.2 |
| 20260903220004 | 83 | 129 | 0.0 | 4.0 | 0.00 | 0.00 | 0.56 | 77 | 1014.2 |
| 20260903215004 | 84 | 124 | 0.0 | 2.0 | 0.00 | 0.00 | 0.56 | 76 | 1014.2 |
| 20260903214005 | 84 | 125 | 0.0 | 6.0 | 0.00 | 0.00 | 0.56 | 75 | 1014.2 |
| 20260903213004 | 84 | 98 | 1.0 | 5.0 | 0.00 | 0.00 | 0.56 | 74 | 1014.0 |
| 20260903211004 | 84 | 20 | 1.0 | 6.0 | 0.00 | 0.00 | 0.56 | 74 | 1014.1 |
| 20260903210005 | 85 | 70 | 2.0 | 7.0 | 0.00 | 0.00 | 0.56 | 74 | 1014.1 |
| 20260903205004 | 85 | 248 | 0.0 | 7.0 | 0.00 | 0.00 | 0.56 | 74 | 1014.3 |
| 20260903204005 | 85 | 85 | 0.0 | 7.0 | 0.00 | 0.00 | 0.56 | 74 | 1014.2 |
| 20260903203005 | 86 | 236 | 3.0 | 8.0 | 0.00 | 0.00 | 0.56 | 75 | 1014.4 |
| 20260903202005 | 85 | 281 | 1.0 | 8.0 | 0.00 | 0.00 | 0.56 | 75 | 1014.5 |
| 20260903201005 | 85 | 229 | 0.0 | 6.0 | 0.00 | 0.00 | 0.56 | 76 | 1014.7 |
| 20260903200004 | 85 | 68 | 0.0 | 8.0 | 0.00 | 0.00 | 0.56 | 74 | 1014.8 |
| 20260903195004 | 85 | 93 | 0.0 | 8.0 | 0.00 | 0.00 | 0.56 | 74 | 1014.9 |
| 20260903194004 | 85 | 160 | 0.0 | 5.0 | 0.00 | 0.00 | 0.56 | 74 | 1014.8 |
| 20260903193005 | 85 | 34 | 0.0 | 7.0 | 0.00 | 0.00 | 0.56 | 74 | 1015.0 |
| 20260903192004 | 85 | 314 | 4.0 | 5.0 | 0.00 | 0.00 | 0.56 | 74 | 1015.1 |
| 20260903191005 | 85 | 298 | 0.0 | 7.0 | 0.00 | 0.00 | 0.56 | 74 | 1015.3 |
| 20260903190005 | 85 | 229 | 0.0 | 5.0 | 0.00 | 0.00 | 0.56 | 76 | 1015.5 |
| 20260903185004 | 85 | 138 | 2.0 | 6.0 | 0.00 | 0.00 | 0.56 | 75 | 1015.5 |